FW5459 Weather Reports


Display with metric or nautical units.
time (UTC)temp
F
wind
direction
speed
MPH
gust
MPH
rain 1hr
in
rain 24hr
in
rain mn
in
humidity
%
barometer
mb
20210922123515 70 0.0 2.0 0.00 0.00 0.00 37 1020.1
20210922122518 70 0.0 1.0 0.00 0.00 0.00 37 1020.1
20210922121518 70 0.0 1.0 0.00 0.00 0.00 38 1020.0
20210922120519 70 0.0 1.0 0.00 0.00 0.00 37 1020.0
20210922115517 70 0.0 2.0 0.00 0.00 0.00 37 1020.0
20210922114517 70 0.0 1.0 0.00 0.00 0.00 37 1020.1
20210922113518 71 0.0 1.0 0.00 0.00 0.00 38 1020.0
20210922112517 71 0.0 2.0 0.00 0.00 0.00 36 1020.1
20210922111517 71 90 1.0 2.0 0.00 0.00 0.00 36 1020.0
20210922110518 71 90 1.0 2.0 0.00 0.00 0.00 36 1020.0
20210922105518 71 68 1.0 3.0 0.00 0.00 0.00 36 1019.9
20210922104518 71 0.0 1.0 0.00 0.00 0.00 36 1020.0
20210922103518 72 0.0 3.0 0.00 0.00 0.00 35 1020.1
20210922102518 72 90 1.0 3.0 0.00 0.00 0.00 35 1020.2
20210922101518 72 68 1.0 3.0 0.00 0.00 0.00 35 1020.2
20210922100517 73 90 1.0 5.0 0.00 0.00 0.00 34 1020.3
20210922095517 73 68 1.0 3.0 0.00 0.00 0.00 35 1020.4
20210922094518 73 90 1.0 5.0 0.00 0.00 0.00 35 1020.4
20210922093517 73 90 1.0 2.0 0.00 0.00 0.00 35 1020.3
20210922092517 73 68 1.0 3.0 0.00 0.00 0.00 35 1020.4
20210922091519 73 68 1.0 3.0 0.00 0.00 0.00 35 1020.3
20210922090517 73 90 1.0 3.0 0.00 0.00 0.00 35 1020.4
20210922085517 73 90 1.0 2.0 0.00 0.00 0.00 35 1020.3
20210922084518 72 0.0 2.0 0.00 0.00 0.00 36 1020.3
20210922083518 73 0.0 1.0 0.00 0.00 0.00 36 1020.3
20210922082517 73 0.0 1.0 0.00 0.00 0.00 36 1020.1
20210922081518 73 0.0 1.0 0.00 0.00 0.00 36 1020.2
20210922080517 74 0.0 2.0 0.00 0.00 0.00 36 1020.2
20210922075517 74 0.0 2.0 0.00 0.00 0.00 35 1020.2
20210922075018 74 0.0 2.0 0.00 0.00 0.00 35 1020.1
20210922074017 74 0.0 2.0 0.00 0.00 0.00 35 1020.2
20210922073017 74 68 1.0 3.0 0.00 0.00 0.00 35 1020.2
20210922072017 74 0.0 2.0 0.00 0.00 0.00 37 1020.2
20210922071018 74 0.0 1.0 0.00 0.00 0.00 37 1020.2
20210922070018 75 0.0 2.0 0.00 0.00 0.00 36 1020.2
20210922065016 75 0.0 1.0 0.00 0.00 0.00 35 1020.2
20210922064016 75 0.0 2.0 0.00 0.00 0.00 35 1020.1
20210922063017 75 0.0 1.0 0.00 0.00 0.00 35 1020.0
20210922062016 76 0.0 1.0 0.00 0.00 0.00 35 1019.8
20210922061017 76 0.0 2.0 0.00 0.00 0.00 34 1020.0
20210922060016 77 0.0 1.0 0.00 0.00 0.00 34 1019.9
20210922055016 77 0.0 1.0 0.00 0.00 0.00 33 1019.9
20210922054017 78 90 1.0 3.0 0.00 0.00 0.00 33 1019.8
20210922053017 78 0.0 2.0 0.00 0.00 0.00 33 1019.9
20210922052016 78 0.0 1.0 0.00 0.00 0.00 33 1019.9
20210922051016 78 0.0 2.0 0.00 0.00 0.00 32 1019.9
20210922050016 79 68 1.0 2.0 0.00 0.00 0.00 32 1019.8
20210922045016 79 90 1.0 3.0 0.00 0.00 0.00 32 1019.8
20210922044016 79 0.0 2.0 0.00 0.00 0.00 32 1019.7
20210922043017 79 0.0 2.0 0.00 0.00 0.00 32 1019.6
20210922042017 79 68 1.0 1.0 0.00 0.00 0.00 33 1019.5
20210922041017 78 0.0 1.0 0.00 0.00 0.00 33 1019.5
20210922040017 79 0.0 1.0 0.00 0.00 0.00 34 1019.4
20210922035017 79 0.0 1.0 0.00 0.00 0.00 34 1019.2
20210922034016 79 0.0 1.0 0.00 0.00 0.00 34 1019.1
20210922033018 80 0.0 0.0 0.00 0.00 0.00 33 1018.9
20210922032018 80 0.0 0.0 0.00 0.00 0.00 33 1018.9
20210922031016 80 0.0 1.0 0.00 0.00 0.00 33 1018.8
20210922030016 82 0.0 0.0 0.00 0.00 0.00 30 1018.8
20210922025016 83 0.0 0.0 0.00 0.00 0.00 31 1018.7
20210922024017 83 0.0 0.0 0.00 0.00 0.00 29 1018.6
20210922023017 83 0.0 0.0 0.00 0.00 0.00 30 1018.7
20210922022016 84 0.0 0.0 0.00 0.00 0.00 29 1018.7
20210922021016 84 0.0 0.0 0.00 0.00 0.00 29 1018.5
20210922020016 85 0.0 0.0 0.00 0.00 0.00 30 1018.5
20210922015016 86 0.0 0.0 0.00 0.00 0.00 28 1018.5
20210922014016 87 0.0 0.0 0.00 0.00 0.00 28 1018.6
20210922013017 89 0.0 0.0 0.00 0.00 0.00 28 1018.6
20210922012016 90 0.0 0.0 0.00 0.00 0.00 26 1018.8
20210922011018 91 0.0 1.0 0.00 0.00 0.00 26 1018.9
20210922010016 92 0.0 0.0 0.00 0.00 0.00 25 1018.8
20210922005017 92 0.0 1.0 0.00 0.00 0.00 24 1018.9
20210922004016 93 0.0 1.0 0.00 0.00 0.00 24 1019.0
20210922003016 93 0.0 1.0 0.00 0.00 0.00 25 1019.0
20210922002016 93 0.0 1.0 0.00 0.00 0.00 25 1018.9
20210922001016 94 0.0 1.0 0.00 0.00 0.00 26 1019.0
20210922000016 93 0.0 1.0 0.00 0.00 0.00 25 1019.1
20210921235016 93 0.0 2.0 0.00 0.00 0.00 25 1019.1
20210921234016 94 0.0 1.0 0.00 0.00 0.00 26 1019.1
20210921233016 93 270 1.0 3.0 0.00 0.00 0.00 25 1019.2
20210921232016 94 0.0 2.0 0.00 0.00 0.00 25 1019.2
20210921231017 94 293 1.0 4.0 0.00 0.00 0.00 25 1019.3
20210921230016 93 248 1.0 3.0 0.00 0.00 0.00 24 1019.3
20210921225016 92 225 3.0 6.0 0.00 0.00 0.00 21 1019.3
20210921224014 93 225 1.0 4.0 0.00 0.00 0.00 23 1019.5
20210921223516 92 225 2.0 4.0 0.00 0.00 0.00 26 1019.8
20210921222516 92 225 2.0 5.0 0.00 0.00 0.00 23 1019.9
20210921221517 93 225 2.0 6.0 0.00 0.00 0.00 26 1020.0
20210921220516 93 225 1.0 6.0 0.00 0.00 0.00 27 1019.9
20210921215516 93 225 1.0 4.0 0.00 0.00 0.00 28 1020.1
20210921214516 93 225 1.0 3.0 0.00 0.00 0.00 30 1020.2
20210921213516 92 225 2.0 6.0 0.00 0.00 0.00 24 1020.1
20210921212517 93 225 1.0 3.0 0.00 0.00 0.00 25 1020.3
20210921211516 92 180 1.0 3.0 0.00 0.00 0.00 28 1020.5
20210921210516 91 248 1.0 5.0 0.00 0.00 0.00 27 1020.5
20210921205516 91 225 1.0 4.0 0.00 0.00 0.00 27 1020.6
20210921204516 90 293 1.0 3.0 0.00 0.00 0.00 30 1020.6
20210921203516 90 293 1.0 2.0 0.00 0.00 0.00 28 1020.7
20210921202516 90 0.0 2.0 0.00 0.00 0.00 30 1020.7
20210921201516 89 225 1.0 3.0 0.00 0.00 0.00 26 1020.9
20210921200516 88 248 1.0 5.0 0.00 0.00 0.00 28 1020.9
20210921195516 88 180 1.0 4.0 0.00 0.00 0.00 33 1021.2
20210921194516 87 248 1.0 4.0 0.00 0.00 0.00 29 1021.1
20210921193516 87 225 2.0 5.0 0.00 0.00 0.00 28 1021.1
20210921192516 87 270 1.0 3.0 0.00 0.00 0.00 31 1021.1
20210921191516 87 248 1.0 3.0 0.00 0.00 0.00 30 1021.1
20210921190516 86 248 1.0 4.0 0.00 0.00 0.00 30 1021.2
20210921185516 86 248 1.0 3.0 0.00 0.00 0.00 30 1021.2
20210921184516 84 225 1.0 4.0 0.00 0.00 0.00 31 1021.3
20210921183517 85 225 1.0 2.0 0.00 0.00 0.00 30 1021.5
20210921182516 85 0.0 1.0 0.00 0.00 0.00 31 1021.5
20210921181516 84 225 1.0 4.0 0.00 0.00 0.00 31 1021.6
20210921180516 84 0.0 2.0 0.00 0.00 0.00 35 1021.5
20210921175516 83 248 1.0 2.0 0.00 0.00 0.00 34 1021.5
20210921174516 83 0.0 2.0 0.00 0.00 0.00 35 1021.6
20210921173516 84 0.0 3.0 0.00 0.00 0.00 30 1021.5
20210921172516 83 0.0 1.0 0.00 0.00 0.00 33 1021.5
20210921171516 83 0.0 3.0 0.00 0.00 0.00 34 1021.4
20210921170516 82 0.0 1.0 0.00 0.00 0.00 33 1021.4
20210921165516 81 0.0 1.0 0.00 0.00 0.00 31 1021.3
20210921164516 80 0.0 2.0 0.00 0.00 0.00 35 1021.4
20210921163516 79 0.0 2.0 0.00 0.00 0.00 35 1021.2
20210921162516 78 0.0 2.0 0.00 0.00 0.00 36 1021.0
20210921161516 77 68 1.0 3.0 0.00 0.00 0.00 34 1020.8
20210921160516 77 0.0 1.0 0.00 0.00 0.00 34 1020.7
20210921155516 76 0.0 0.0 0.00 0.00 0.00 39 1020.7
20210921154516 74 0.0 0.0 0.00 0.00 0.00 35 1020.6
20210921153518 73 0.0 1.0 0.00 0.00 0.00 36 1020.5
20210921152519 71 0.0 1.0 0.00 0.00 0.00 39 1020.4
20210921151518 70 0.0 0.0 0.00 0.00 0.00 39 1020.4
20210921150518 70 0.0 0.0 0.00 0.00 0.00 38 1020.4
20210921145518 71 0.0 0.0 0.00 0.00 0.00 36 1020.3
20210921144518 70 0.0 0.0 0.00 0.00 0.00 39 1020.3
20210921143518 70 0.0 0.0 0.00 0.00 0.00 37 1020.1
20210921142518 70 0.0 0.0 0.00 0.00 0.00 36 1019.9
20210921141518 70 0.0 0.0 0.00 0.00 0.00 35 1019.8
20210921140518 69 0.0 0.0 0.00 0.00 0.00 36 1019.8
20210921135518 68 0.0 0.0 0.00 0.00 0.00 38 1019.6
20210921134518 68 0.0 1.0 0.00 0.00 0.00 37 1019.5
20210921133517 67 0.0 0.0 0.00 0.00 0.00 38 1019.3
20210921132518 67 0.0 0.0 0.00 0.00 0.00 38 1019.2
20210921131518 67 0.0 1.0 0.00 0.00 0.00 39 1019.2
20210921130518 67 0.0 1.0 0.00 0.00 0.00 39 1019.1
20210921125518 67 0.0 0.0 0.00 0.00 0.00 39 1019.0
20210921124518 65 0.0 0.0 0.00 0.00 0.00 40 1018.9